Flag for Costa Rica Weather past 2 weeks in San Jose, Costa Rica

Now
68 °F

Passing clouds.


Feels Like: 68 °F
Forecast: 64 / 78 °F
Wind: 17 mph from East

Location: Juan Santamaria

Current Time: Jan 26, 2015 at 12:36:07 AM

Latest Report: Jan 26, 2015 at 12:00 AM


Visibility: N/A

Pressure: 29.97 "Hg

Humidity: 69%

Dew point: 57 °F

Location of San JoseLocation

Historic Weather in San Jose — Graph

°F

San Jose temperature yesterday

Maximum temperature yesterday: 81 °F (at 11:05 AM)
Minimum temperature yesterday: 64 °F (at 4:00 AM)
Average temperature yesterday: 72 °F

Past Weeks' High & Low Weather Summary

 TemperatureHumidityPressure
High86 °F (Jan 15, 2:00 PM)88% (Jan 15, 7:00 PM)30.11 "Hg (Jan 15, 7:00 PM)
Low64 °F (Jan 23, 5:00 AM)28% (Jan 21, 12:00 PM)29.92 "Hg (Jan 11, 4:00 PM)
Average73 °F61%30.01 "Hg
* Reported Jan 10 11:00 PM — Jan 25 11:00 PM, San Jose, Weather by CustomWeather, © 2014

Note: Actual official high and low records may vary slightly from our data, if they occured in-between our weather recording intervals... More about our weather records

Advertising

San Jose weather history for previous 24 hours

 ConditionsComfort  
Time TempWeatherWind HumidityBarometerVisibility
11:00 PM
Jan 25
68 °FPassing clouds.17 mph69%29.98 "HgN/A
10:00 PM70 °FPassing clouds.18 mph64%29.99 "HgN/A
9:00 PM70 °FPassing clouds.17 mph60%29.99 "HgN/A
8:00 PM70 °FPassing clouds.12 mph60%29.98 "HgN/A
7:00 PM70 °FPassing clouds.13 mph64%29.96 "HgN/A
6:00 PM72 °FPassing clouds.12 mph57%29.95 "HgN/A
5:00 PM75 °FPassing clouds.15 mph50%29.94 "HgN/A
4:00 PM75 °FPassing clouds.17 mph54%29.93 "HgN/A
3:00 PM81 °FPassing clouds.12 mph45%29.93 "HgN/A
2:00 PM81 °FPassing clouds.14 mph45%29.92 "HgN/A
1:00 PM81 °FPassing clouds.16 mph45%29.95 "HgN/A
12:00 PM79 °FScattered clouds.16 mph48%29.97 "HgN/A
11:05 AM81 °FScattered clouds.18 mph45%30.00 "HgN/A
11:00 AM79 °FScattered clouds.17 mph48%30.00 "HgN/A
10:00 AM79 °FPassing clouds.15 mph45%30.02 "HgN/A
9:00 AM75 °FPassing clouds.15 mph54%30.03 "HgN/A
8:00 AM72 °FSunny.13 mph61%30.01 "Hg10 mi
7:00 AM68 °FPassing clouds.14 mph69%30.00 "HgN/A
6:00 AM66 °FScattered clouds.12 mph68%29.98 "HgN/A
5:00 AM66 °FClear.10 mph64%29.97 "Hg10 mi
4:00 AM64 °FClear.8 mph64%29.96 "Hg10 mi
3:00 AM66 °FClear.10 mph60%29.96 "Hg10 mi
2:00 AM66 °FClear.9 mph64%29.97 "Hg10 mi
1:00 AM68 °FClear.15 mph69%29.98 "Hg10 mi
12:00 AM68 °FPassing clouds.13 mph69%30.00 "HgN/A
Weather by CustomWeather, © 2014

See weather overviewHow to use our weather pages